Retour au catalogue

HULIANWANG DIGUI-138

ActifCommunicationsLEO
NORAD 67436·PAYLOAD·🇨🇳 China

Lancé Jan 13, 2026 depuis Wenchang Space Launch Site

Loading…

Prochains Passages (prochaines 24 heures)

TLE

FraisSource: Space-Track

Époque: Sep 14, 2026, 00:49 UTC

1 67436U 26007B   26257.03468823 -.00000082  00000-0  90108-4 0  9990
2 67436  50.0049 127.3291 0000433 355.8627   4.2241 13.29328741 32601

Suivez HULIANWANG DIGUI-138 en temps réel avec AllMySat

Download on the App Store